Weather History for KGYY - March, 2014

Change the Weather History Date:

Tuesday, March 25, 2014

  Actual Average Record
Temperature  
Mean Temperature 28 °F -  
Max Temperature 32 °F 46 °F 80 °F (2007)
Min Temperature 25 °F 28 °F 10 °F (1974)
Degree Days  
Heating Degree Days 38    
Moisture  
Dew Point 13 °F    
Average Humidity 54    
Maximum Humidity 88    
Minimum Humidity 34    
Precipitation  
Precipitation 0.00 in - - ()
Sea Level Pressure  
Sea Level Pressure 30.11 in    
Wind  
Wind Speed 8 mph (West)    
Max Wind Speed 18 mph    
Max Gust Speed 32 mph    
Visibility 10 miles    
Events Snow    
Averages and records for this station are not official NWS values.
T = Trace of Precipitation, MM = Missing Value Source: NWS Daily Summary

Daily Weather History Graph

Daily Weather History Graph

Search for Another Location

Airport or City:

Trip Planner

Search our weather history database for the weather conditions in past years. The results will help you decide how hot, cold, wet, or windy it might be!

Date:

Astronomy

Mar. 25, 2014 Rise Set
Actual Time 6:44 AM CDT 7:07 PM CDT
Civil Twilight 6:16 AM CDT 7:35 PM CDT
Nautical Twilight 5:44 AM CDT 8:07 PM CDT
Astronomical Twilight 5:10 AM CDT 8:41 PM CDT
Moon 3:09 AM CDT (3/25) 1:33 PM CDT (3/25)
Length of Visible Light 13h 18m
Length of Day
12h 22m
Waning Crescent, 32% of the Moon is Illuminated
Mar 25
Waning Crescent
Mar 30
New
Apr 7
First Quarter
Apr 15
Full
Apr 22
Last Quarter

Hourly Weather History & Observations

Time (CDT) Temp. Windchill Dew Point Humidity Pressure Visibility Wind Dir Wind Speed Gust Speed Precip Events Conditions
12:15 AM 30.2 °F 25.4 °F 14.0 °F 51% 30.07 in 10.0 mi SSW 4.6 mph - N/A   Clear
12:35 AM 30.2 °F 25.4 °F 14.5 °F 52% 30.07 in 10.0 mi SSW 4.6 mph - N/A   Clear
12:55 AM 30.2 °F 24.3 °F 15.1 °F 53% 30.06 in 10.0 mi SW 5.8 mph - N/A   Clear
1:15 AM 30.0 °F 25.2 °F 16.3 °F 57% 30.05 in 10.0 mi SW 4.6 mph - N/A   Clear
1:35 AM 29.8 °F 24.9 °F 16.7 °F 58% 30.04 in 10.0 mi SW 4.6 mph - N/A   Clear
1:55 AM 29.3 °F 25.6 °F 17.4 °F 61% 30.03 in 10.0 mi SW 3.5 mph - N/A   Clear
2:15 AM 29.3 °F 24.3 °F 18.0 °F 63% 30.03 in 10.0 mi SW 4.6 mph - N/A   Mostly Cloudy
2:35 AM 30.2 °F 25.4 °F 18.5 °F 62% 30.02 in 10.0 mi SW 4.6 mph - N/A   Scattered Clouds
2:55 AM 30.4 °F 24.5 °F 19.4 °F 64% 30.01 in 10.0 mi SW 5.8 mph - N/A   Scattered Clouds
3:15 AM 30.9 °F 27.5 °F 20.7 °F 66% 30.01 in 10.0 mi SW 3.5 mph - N/A   Mostly Cloudy
3:35 AM 30.2 °F 20.2 °F 25.2 °F 82% 30.01 in 1.2 mi West 12.7 mph 18.4 mph N/A Snow Light Snow
3:55 AM 29.3 °F 20.8 °F 26.1 °F 88% 30.01 in 1.2 mi West 9.2 mph - N/A Snow Light Snow
4:15 AM 29.3 °F 22.3 °F 26.1 °F 88% 30.00 in 7.0 mi West 6.9 mph - N/A Snow Light Snow
4:45 AM 28.4 °F 20.4 °F 24.8 °F 86% 30.00 in 10.0 mi West 8.1 mph - N/A   Overcast
5:45 AM 28.4 °F 17.5 °F 23.0 °F 80% 30.01 in 1.0 mi NW 13.8 mph - N/A Snow Light Snow
6:45 AM 26.6 °F 15.2 °F 19.4 °F 74% 30.02 in 10.0 mi NW 13.8 mph - N/A   Overcast
7:45 AM 26.6 °F 15.2 °F 17.6 °F 69% 30.04 in 10.0 mi WNW 13.8 mph - N/A   Mostly Cloudy
8:45 AM 28.4 °F 17.5 °F 14.0 °F 55% 30.05 in 10.0 mi NW 13.8 mph - N/A   Partly Cloudy
9:45 AM 30.2 °F 19.8 °F 12.2 °F 47% 30.07 in 10.0 mi WNW 13.8 mph - N/A   Scattered Clouds
10:45 AM 30.2 °F 19.8 °F 14.0 °F 51% 30.09 in 10.0 mi NW 13.8 mph 25.3 mph N/A   Mostly Cloudy
11:45 AM 28.4 °F 17.5 °F 15.8 °F 59% 30.11 in 10.0 mi WNW 13.8 mph 25.3 mph N/A   Mostly Cloudy
12:45 PM 30.2 °F 19.8 °F 12.2 °F 47% 30.12 in 15.0 mi WNW 13.8 mph - N/A   Mostly Cloudy
1:45 PM 30.2 °F 19.8 °F 6.8 °F 37% 30.12 in 15.0 mi WNW 13.8 mph 32.2 mph N/A   Overcast
2:45 PM 30.2 °F 19.8 °F 6.8 °F 37% 30.12 in 15.0 mi WNW 13.8 mph 25.3 mph N/A   Mostly Cloudy
3:45 PM 30.2 °F 18.1 °F 5.0 °F 34% 30.13 in 15.0 mi West 18.4 mph - N/A   Mostly Cloudy
4:45 PM 28.4 °F 15.8 °F 5.0 °F 37% 30.14 in 15.0 mi WNW 18.4 mph - N/A   Mostly Cloudy
5:45 PM 28.4 °F 18.0 °F 5.0 °F 37% 30.15 in 15.0 mi WNW 12.7 mph 27.6 mph N/A   Mostly Cloudy
7:45 PM 26.6 °F 13.4 °F 3.2 °F 37% 30.18 in 10.0 mi WNW 18.4 mph - N/A   Scattered Clouds
8:45 PM 26.6 °F 18.2 °F 5.0 °F 40% 30.20 in 10.0 mi WNW 8.1 mph 23.0 mph N/A   Partly Cloudy
9:15 PM 26.8 °F 16.5 °F 5.7 °F 41% 30.20 in 10.0 mi West 11.5 mph - N/A   Scattered Clouds
9:35 PM 26.6 °F 17.5 °F 7.2 °F 44% 30.21 in 10.0 mi West 9.2 mph - N/A   Scattered Clouds
9:45 PM 26.6 °F 16.2 °F 6.8 °F 43% 30.21 in 10.0 mi West 11.5 mph - N/A   Mostly Cloudy
9:55 PM 26.8 °F 17.1 °F 6.6 °F 42% 30.22 in 10.0 mi West 10.4 mph - N/A   Mostly Cloudy
10:15 PM 26.8 °F 18.5 °F 7.5 °F 44% 30.22 in 10.0 mi West 8.1 mph - N/A   Mostly Cloudy
10:35 PM 26.6 °F 16.2 °F 7.3 °F 44% 30.22 in 10.0 mi West 11.5 mph - N/A   Overcast
10:55 PM 26.6 °F 16.8 °F 7.0 °F 43% 30.23 in 10.0 mi West 10.4 mph - N/A   Overcast
11:15 PM 26.2 °F 17.8 °F 7.5 °F 45% 30.23 in 10.0 mi West 8.1 mph - N/A   Mostly Cloudy
11:35 PM 25.7 °F 16.4 °F 8.2 °F 48% 30.24 in 10.0 mi West 9.2 mph - N/A   Mostly Cloudy
11:55 PM 25.7 °F 16.4 °F 8.8 °F 49% 30.24 in 10.0 mi West 9.2 mph - N/A   Mostly Cloudy